START_TIME,STEP,MOV.,M34,t_acc.,L5,t_acc.,L18,t_acc.,L14,t_acc.
1979-07-29 21:00:23.780 ,0,0,0.,12.0,0.,12.0,0.,12.0,0.,12.0
1979-07-29 21:00:35.780 ,0,0,0.,12.0,0.,12.0,0.,12.0,0.,12.0
1979-07-29 21:00:47.780 ,0,1,0.,12.0,0.,12.0,0.,12.0,0.,12.0
1979-07-29 21:00:59.780 ,0,1,0.,12.0,0.,12.0,0.,12.0,0.,12.0
1979-07-29 21:01:11.780 ,0,0,0.,12.0,0.,12.0,0.,12.0,0.,12.0
1979-07-29 21:01:23.780 ,0,0,0.,12.0,0.,12.0,0.,12.0,0.,12.0
1979-07-29 21:01:35.780 ,1,1,0.,12.0,0.,12.0,0.,12.0,0.,12.0
1979-07-29 21:01:47.780 ,1,1,0.,12.0,1.,12.0,0.,12.0,0.,12.0
1979-07-29 21:01:59.780 ,1,0,0.,12.0,0.,12.0,0.,12.0,0.,12.0
1979-07-29 21:02:11.780 ,1,0,0.,12.0,0.,12.0,0.,12.0,0.,12.0
1979-07-29 21:02:23.780 ,2,1,0.,12.0,0.,12.0,0.,12.0,0.,12.0
1979-07-29 21:02:35.780 ,2,1,0.,12.0,0.,12.0,0.,12.0,0.,12.0
1979-07-29 21:02:47.780 ,2,0,0.,12.0,0.,12.0,0.,12.0,0.,12.0
1979-07-29 21:02:59.780 ,2,0,0.,12.0,0.,12.0,0.,12.0,0.,12.0
1979-07-29 21:03:11.780 ,3,1,0.,12.0,0.,12.0,0.,12.0,0.,12.0
1979-07-29 21:03:23.780 ,3,1,0.,12.0,0.,12.0,0.,12.0,0.,12.0
1979-07-29 21:03:35.780 ,3,0,0.,12.0,0.,12.0,0.,12.0,1.,12.0
1979-07-29 21:03:47.780 ,3,0,0.,12.0,0.,12.0,0.,12.0,0.,12.0
1979-07-29 21:03:59.780 ,4,1,0.,12.0,0.,12.0,0.,12.0,0.,12.0
1979-07-29 21:04:11.780 ,4,1,0.,12.0,0.,12.0,0.,12.0,0.,12.0
1979-07-29 21:04:23.780 ,4,0,0.,12.0,0.,12.0,0.,12.0,0.,12.0
1979-07-29 21:04:35.780 ,4,0,0.,12.0,0.,12.0,0.,12.0,0.,12.0
1979-07-29 21:04:47.780 ,5,1,0.,12.0,0.,12.0,0.,12.0,0.,12.0
1979-07-29 21:04:59.780 ,5,1,0.,12.0,0.,12.0,0.,12.0,0.,12.0
1979-07-29 21:05:11.780 ,5,0,0.,12.0,0.,12.0,0.,12.0,0.,12.0
1979-07-29 21:05:23.780 ,5,0,0.,12.0,0.,12.0,0.,12.0,0.,12.0
1979-07-29 21:05:35.780 ,6,1,0.,12.0,0.,12.0,0.,12.0,0.,12.0
1979-07-29 21:05:47.780 ,6,1,0.,12.0,0.,12.0,0.,12.0,0.,12.0
1979-07-29 21:05:59.780 ,6,0,0.,12.0,0.,12.0,0.,12.0,0.,12.0
1979-07-29 21:06:11.780 ,6,0,0.,12.0,0.,12.0,0.,12.0,0.,12.0
1979-07-29 21:06:23.780 ,7,0,,0,,0,,0,,0
1979-07-29 21:06:35.780 ,7,0,0.,12.0,0.,12.0,0.,12.0,0.,12.0
1979-07-29 21:06:47.780 ,7,0,0.,12.0,0.,12.0,0.,12.0,0.,12.0
1979-07-29 21:06:59.780 ,7,0,0.,12.0,0.,12.0,0.,12.0,0.,12.0
1979-07-29 21:07:11.780 ,4,1,0.,12.0,0.,12.0,0.,12.0,0.,12.0
1979-07-29 21:07:23.780 ,4,1,0.,12.0,0.,12.0,0.,12.0,0.,12.0
1979-07-29 21:07:35.780 ,0,1,0.,12.0,0.,12.0,0.,12.0,0.,12.0
1979-07-29 21:07:47.780 ,0,1,0.,12.0,0.,12.0,0.,12.0,0.,12.0
1979-07-29 21:07:59.780 ,3,1,0.,12.0,0.,12.0,0.,12.0,0.,12.0
1979-07-29 21:08:11.780 ,3,1,0.,12.0,0.,12.0,0.,12.0,0.,12.0
1979-07-29 21:08:23.780 ,7,1,0.,12.0,0.,12.0,0.,12.0,0.,12.0
1979-07-29 21:08:35.780 ,7,1,0.,12.0,0.,12.0,0.,12.0,0.,12.0
1979-07-29 21:08:47.780 ,4,1,0.,12.0,0.,12.0,0.,12.0,0.,12.0
1979-07-29 21:08:59.780 ,4,1,0.,12.0,0.,12.0,0.,12.0,0.,12.0
1979-07-29 21:09:11.780 ,0,1,0.,12.0,0.,12.0,0.,12.0,0.,12.0
1979-07-29 21:09:23.780 ,0,1,0.,12.0,0.,12.0,0.,12.0,0.,12.0
1979-07-29 21:09:35.780 ,3,1,0.,12.0,0.,12.0,0.,12.0,0.,12.0
1979-07-29 21:09:47.780 ,3,1,0.,12.0,0.,12.0,0.,12.0,0.,12.0
1979-07-29 21:09:59.780 ,7,1,0.,12.0,0.,12.0,0.,12.0,0.,12.0
1979-07-29 21:10:11.780 ,7,1,0.,12.0,0.,12.0,0.,12.0,0.,12.0
1979-07-29 21:10:23.780 ,4,1,0.,12.0,0.,12.0,0.,12.0,0.,12.0
1979-07-29 21:10:35.780 ,4,1,0.,12.0,0.,12.0,0.,12.0,0.,12.0
1979-07-29 21:10:47.780 ,0,1,0.,12.0,0.,12.0,0.,12.0,0.,12.0
1979-07-29 21:10:59.780 ,0,1,0.,12.0,0.,12.0,0.,12.0,0.,12.0
1979-07-29 21:11:11.780 ,3,1,0.,12.0,0.,12.0,0.,12.0,0.,12.0
1979-07-29 21:11:23.780 ,3,1,0.,12.0,0.,12.0,0.,12.0,0.,12.0
1979-07-29 21:11:35.780 ,7,1,0.,12.0,0.,12.0,0.,12.0,0.,12.0
1979-07-29 21:11:47.780 ,7,1,0.,12.0,0.,12.0,0.,12.0,0.,12.0
1979-07-29 21:11:59.780 ,4,1,0.,12.0,0.,12.0,0.,12.0,0.,12.0
1979-07-29 21:12:11.780 ,4,1,0.,12.0,0.,12.0,0.,12.0,0.,12.0
1979-07-29 21:12:23.780 ,0,1,0.,12.0,0.,12.0,0.,12.0,0.,12.0
1979-07-29 21:12:35.780 ,0,1,1.,12.0,0.,12.0,0.,12.0,0.,12.0
1979-07-29 21:12:47.780 ,3,1,0.,12.0,0.,12.0,0.,12.0,0.,12.0
1979-07-29 21:12:59.780 ,3,1,0.,12.0,0.,12.0,0.,12.0,0.,12.0
1979-07-29 21:13:11.780 ,7,1,0.,12.0,0.,12.0,0.,12.0,0.,12.0
1979-07-29 21:13:23.780 ,7,1,0.,12.0,0.,12.0,0.,12.0,0.,12.0
1979-07-29 21:13:35.780 ,4,1,0.,12.0,0.,12.0,0.,12.0,0.,12.0
1979-07-29 21:13:47.780 ,4,1,0.,12.0,0.,12.0,0.,12.0,0.,12.0
1979-07-29 21:13:59.780 ,0,1,0.,12.0,0.,12.0,0.,12.0,0.,12.0
1979-07-29 21:14:11.780 ,0,1,0.,12.0,0.,12.0,0.,12.0,0.,12.0
1979-07-29 21:14:23.780 ,3,1,0.,12.0,0.,12.0,0.,12.0,0.,12.0
1979-07-29 21:14:35.780 ,3,1,0.,12.0,0.,12.0,0.,12.0,0.,12.0
1979-07-29 21:14:47.780 ,7,1,0.,12.0,0.,12.0,0.,12.0,0.,12.0
1979-07-29 21:14:59.780 ,7,1,0.,12.0,0.,12.0,0.,12.0,0.,12.0
1979-07-29 21:15:11.780 ,4,1,0.,12.0,0.,12.0,0.,12.0,0.,12.0
1979-07-29 21:15:23.780 ,4,1,1.,12.0,0.,12.0,0.,12.0,0.,12.0
1979-07-29 21:15:35.780 ,0,1,0.,12.0,0.,12.0,0.,12.0,0.,12.0
1979-07-29 21:15:47.780 ,0,1,0.,12.0,0.,12.0,0.,12.0,0.,12.0
1979-07-29 21:15:59.780 ,3,1,0.,12.0,0.,12.0,0.,12.0,0.,12.0
1979-07-29 21:16:11.780 ,3,1,0.,12.0,0.,12.0,0.,12.0,0.,12.0
1979-07-29 21:16:23.780 ,7,1,1.,12.0,0.,12.0,0.,12.0,0.,12.0
1979-07-29 21:16:35.780 ,7,1,0.,12.0,0.,12.0,0.,12.0,0.,12.0
1979-07-29 21:16:47.780 ,4,1,0.,12.0,0.,12.0,0.,12.0,0.,12.0
1979-07-29 21:16:59.780 ,4,1,0.,12.0,0.,12.0,0.,12.0,0.,12.0
1979-07-29 21:17:11.780 ,0,1,0.,12.0,0.,12.0,0.,12.0,0.,12.0
1979-07-29 21:17:23.780 ,0,1,0.,12.0,0.,12.0,0.,12.0,0.,12.0
1979-07-29 21:17:35.780 ,0,0,0.,12.0,0.,12.0,0.,12.0,0.,12.0
1979-07-29 21:17:47.780 ,0,0,0.,12.0,0.,12.0,0.,12.0,0.,12.0
1979-07-29 21:17:59.780 ,0,0,0.,12.0,0.,12.0,0.,12.0,0.,12.0
1979-07-29 21:18:11.780 ,0,0,0.,12.0,0.,12.0,0.,12.0,0.,12.0
1979-07-29 21:18:23.780 ,5,1,0.,12.0,0.,12.0,0.,12.0,0.,12.0
1979-07-29 21:18:35.780 ,5,1,0.,12.0,0.,12.0,0.,12.0,0.,12.0
1979-07-29 21:18:47.780 ,5,0,0.,12.0,0.,12.0,0.,12.0,0.,12.0
1979-07-29 21:18:59.780 ,5,0,0.,12.0,0.,12.0,0.,12.0,0.,12.0
1979-07-29 21:19:11.780 ,4,1,0.,12.0,0.,12.0,0.,12.0,0.,12.0
1979-07-29 21:19:23.780 ,4,1,0.,12.0,0.,12.0,0.,12.0,0.,12.0
1979-07-29 21:19:35.780 ,4,0,0.,12.0,0.,12.0,0.,12.0,0.,12.0
1979-07-29 21:19:47.780 ,4,0,0.,12.0,0.,12.0,0.,12.0,0.,12.0
1979-07-29 21:19:59.780 ,3,1,0.,12.0,0.,12.0,0.,12.0,0.,12.0
1979-07-29 21:20:11.780 ,3,1,0.,12.0,0.,12.0,0.,12.0,0.,12.0
1979-07-29 21:20:23.780 ,3,0,0.,12.0,0.,12.0,0.,12.0,0.,12.0
1979-07-29 21:20:35.780 ,3,0,0.,12.0,0.,12.0,0.,12.0,0.,12.0
1979-07-29 21:20:47.780 ,2,1,0.,12.0,0.,12.0,0.,12.0,0.,12.0
1979-07-29 21:20:59.780 ,2,1,0.,12.0,0.,12.0,0.,12.0,0.,12.0
1979-07-29 21:21:11.780 ,2,0,0.,12.0,0.,12.0,0.,12.0,0.,12.0
1979-07-29 21:21:23.780 ,2,0,0.,12.0,0.,12.0,0.,12.0,0.,12.0
1979-07-29 21:21:35.780 ,1,1,0.,12.0,0.,12.0,0.,12.0,0.,12.0
1979-07-29 21:21:47.780 ,1,1,0.,12.0,0.,12.0,0.,12.0,0.,12.0
1979-07-29 21:21:59.780 ,0,0,0.,12.0,0.,12.0,0.,12.0,0.,12.0
1979-07-29 21:22:11.780 ,0,0,0.,12.0,0.,12.0,0.,12.0,0.,12.0
1979-07-29 21:22:47.780 ,0,0,0.,12.0,0.,12.0,0.,12.0,0.,12.0
1979-07-29 21:22:59.780 ,0,0,0.,12.0,0.,12.0,0.,12.0,0.,12.0
1979-07-29 21:23:11.780 ,0,1,0.,12.0,0.,12.0,0.,12.0,0.,12.0
1979-07-29 21:23:23.780 ,0,1,0.,12.0,0.,12.0,0.,12.0,0.,12.0
1979-07-29 21:23:35.780 ,0,0,0.,12.0,0.,12.0,0.,12.0,0.,12.0
1979-07-29 21:23:47.780 ,0,0,0.,12.0,0.,12.0,0.,12.0,0.,12.0
1979-07-29 21:23:59.780 ,1,1,0.,12.0,0.,12.0,0.,12.0,0.,12.0
1979-07-29 21:24:11.780 ,1,1,0.,12.0,0.,12.0,0.,12.0,0.,12.0
1979-07-29 21:24:23.780 ,1,0,0.,12.0,0.,12.0,0.,12.0,0.,12.0
1979-07-29 21:24:35.780 ,1,0,0.,12.0,0.,12.0,0.,12.0,0.,12.0
1979-07-29 21:24:47.780 ,2,1,0.,12.0,0.,12.0,0.,12.0,0.,12.0
1979-07-29 21:24:59.780 ,2,1,0.,12.0,0.,12.0,0.,12.0,0.,12.0
1979-07-29 21:25:11.780 ,2,0,0.,12.0,0.,12.0,0.,12.0,0.,12.0
1979-07-29 21:25:23.780 ,2,0,0.,12.0,0.,12.0,0.,12.0,0.,12.0
1979-07-29 21:25:35.780 ,3,1,0.,12.0,0.,12.0,0.,12.0,0.,12.0
1979-07-29 21:25:47.780 ,3,1,0.,12.0,0.,12.0,0.,12.0,0.,12.0
1979-07-29 21:25:59.780 ,3,0,0.,12.0,0.,12.0,0.,12.0,0.,12.0
1979-07-29 21:26:11.780 ,3,0,0.,12.0,0.,12.0,0.,12.0,0.,12.0
1979-07-29 21:26:23.780 ,4,1,0.,12.0,0.,12.0,0.,12.0,0.,12.0
1979-07-29 21:26:35.780 ,4,1,0.,12.0,0.,12.0,0.,12.0,0.,12.0
1979-07-29 21:26:47.780 ,4,0,0.,12.0,0.,12.0,0.,12.0,0.,12.0
1979-07-29 21:26:59.780 ,4,0,0.,12.0,0.,12.0,0.,12.0,0.,12.0
1979-07-29 21:27:11.780 ,5,1,0.,12.0,0.,12.0,0.,12.0,0.,12.0
1979-07-29 21:27:23.780 ,5,1,0.,12.0,0.,12.0,0.,12.0,0.,12.0
1979-07-29 21:27:35.780 ,5,0,0.,12.0,0.,12.0,0.,12.0,0.,12.0
1979-07-29 21:27:47.780 ,5,0,0.,12.0,0.,12.0,0.,12.0,0.,12.0
1979-07-29 21:27:59.780 ,6,1,0.,12.0,0.,12.0,0.,12.0,0.,12.0
1979-07-29 21:28:11.780 ,6,1,0.,12.0,0.,12.0,0.,12.0,0.,12.0
1979-07-29 21:28:23.780 ,6,0,0.,12.0,0.,12.0,0.,12.0,0.,12.0
1979-07-29 21:28:35.780 ,6,0,0.,12.0,0.,12.0,0.,12.0,1.,12.0
1979-07-29 21:28:47.780 ,7,1,0.,12.0,0.,12.0,0.,12.0,0.,12.0
1979-07-29 21:28:59.780 ,7,1,0.,12.0,0.,12.0,0.,12.0,0.,12.0
1979-07-29 21:29:11.780 ,7,0,0.,12.0,0.,12.0,0.,12.0,0.,12.0
1979-07-29 21:29:23.780 ,7,0,0.,12.0,0.,12.0,0.,12.0,0.,12.0
1979-07-29 21:29:35.780 ,7,1,0.,12.0,0.,12.0,0.,12.0,0.,12.0
1979-07-29 21:29:47.780 ,7,1,0.,12.0,0.,12.0,0.,12.0,0.,12.0
1979-07-29 21:29:59.780 ,7,0,0.,12.0,0.,12.0,0.,12.0,0.,12.0
1979-07-29 21:30:11.780 ,7,0,0.,12.0,0.,12.0,0.,12.0,0.,12.0
1979-07-29 21:30:23.780 ,6,1,0.,12.0,0.,12.0,0.,12.0,0.,12.0
1979-07-29 21:30:35.780 ,6,1,0.,12.0,0.,12.0,0.,12.0,0.,12.0
1979-07-29 21:30:47.780 ,6,0,0.,12.0,0.,12.0,0.,12.0,0.,12.0
1979-07-29 21:30:59.780 ,6,0,0.,12.0,0.,12.0,0.,12.0,0.,12.0
1979-07-29 21:31:11.780 ,5,1,0.,12.0,0.,12.0,0.,12.0,0.,12.0
1979-07-29 21:31:23.780 ,5,1,0.,12.0,0.,12.0,0.,12.0,0.,12.0
1979-07-29 21:31:35.780 ,5,0,0.,12.0,0.,12.0,0.,12.0,0.,12.0
1979-07-29 21:31:47.780 ,5,0,0.,12.0,0.,12.0,0.,12.0,0.,12.0
1979-07-29 21:31:59.780 ,4,1,0.,12.0,0.,12.0,0.,12.0,0.,12.0
1979-07-29 21:32:11.780 ,4,1,0.,12.0,0.,12.0,0.,12.0,0.,12.0
1979-07-29 21:32:23.780 ,4,0,0.,12.0,0.,12.0,0.,12.0,0.,12.0
1979-07-29 21:32:35.780 ,4,0,0.,12.0,0.,12.0,0.,12.0,0.,12.0
1979-07-29 21:32:47.780 ,3,1,0.,12.0,0.,12.0,0.,12.0,0.,12.0
1979-07-29 21:32:59.780 ,3,1,0.,12.0,0.,12.0,0.,12.0,0.,12.0
1979-07-29 21:33:11.780 ,3,0,0.,12.0,0.,12.0,0.,12.0,0.,12.0
1979-07-29 21:33:23.780 ,3,0,0.,12.0,0.,12.0,0.,12.0,0.,12.0
1979-07-29 21:33:35.780 ,0,0,0.,12.0,0.,12.0,0.,12.0,0.,12.0
1979-07-29 21:33:47.780 ,0,0,,0,,0,,0,,0
1979-07-29 21:33:59.780 ,0,0,,0,,0,,0,,0
1979-07-29 21:34:11.780 ,0,0,0.,12.0,0.,12.0,0.,12.0,0.,12.0
1979-07-29 21:34:23.780 ,1,1,0.,12.0,0.,12.0,0.,12.0,0.,12.0
1979-07-29 21:34:35.780 ,1,1,0.,12.0,0.,12.0,0.,12.0,0.,12.0
1979-07-29 21:34:47.780 ,1,0,0.,12.0,0.,12.0,0.,12.0,0.,12.0
1979-07-29 21:34:59.780 ,1,0,0.,12.0,0.,12.0,0.,12.0,0.,12.0
1979-07-29 21:35:11.780 ,0,1,0.,12.0,0.,12.0,0.,12.0,0.,12.0
1979-07-29 21:35:23.780 ,0,1,0.,12.0,0.,12.0,0.,12.0,0.,12.0
1979-07-29 21:35:35.780 ,0,0,0.,12.0,0.,12.0,0.,12.0,0.,12.0
1979-07-29 21:35:47.780 ,0,0,0.,12.0,0.,12.0,0.,12.0,0.,12.0
1979-07-29 21:35:59.780 ,0,1,0.,12.0,0.,12.0,0.,12.0,0.,12.0
1979-07-29 21:36:11.780 ,0,1,0.,12.0,0.,12.0,0.,12.0,0.,12.0
1979-07-29 21:36:23.780 ,0,0,0.,12.0,0.,12.0,0.,12.0,0.,12.0
1979-07-29 21:36:35.780 ,0,0,0.,12.0,0.,12.0,0.,12.0,0.,12.0
1979-07-29 21:36:47.780 ,1,1,0.,12.0,0.,12.0,0.,12.0,0.,12.0
1979-07-29 21:36:59.780 ,1,1,0.,12.0,0.,12.0,0.,12.0,0.,12.0
1979-07-29 21:37:11.780 ,1,0,0.,12.0,0.,12.0,0.,12.0,0.,12.0
1979-07-29 21:37:23.780 ,1,0,0.,12.0,0.,12.0,0.,12.0,0.,12.0
1979-07-29 21:37:35.780 ,2,1,0.,12.0,0.,12.0,0.,12.0,0.,12.0
1979-07-29 21:37:47.780 ,2,1,0.,12.0,0.,12.0,0.,12.0,0.,12.0
1979-07-29 21:37:59.780 ,2,0,0.,12.0,0.,12.0,0.,12.0,0.,12.0
1979-07-29 21:38:11.780 ,2,0,0.,12.0,0.,12.0,0.,12.0,0.,12.0
1979-07-29 21:38:23.780 ,3,1,0.,12.0,0.,12.0,0.,12.0,0.,12.0
1979-07-29 21:38:35.780 ,3,1,0.,12.0,0.,12.0,0.,12.0,0.,12.0
1979-07-29 21:38:47.780 ,3,0,0.,12.0,0.,12.0,0.,12.0,0.,12.0
1979-07-29 21:38:59.780 ,3,0,0.,12.0,0.,12.0,0.,12.0,0.,12.0
1979-07-29 21:39:11.780 ,4,1,0.,12.0,0.,12.0,0.,12.0,0.,12.0
1979-07-29 21:39:23.780 ,4,1,0.,12.0,0.,12.0,0.,12.0,0.,12.0
1979-07-29 21:39:35.780 ,4,0,0.,12.0,0.,12.0,0.,12.0,0.,12.0
1979-07-29 21:39:47.780 ,4,0,0.,12.0,0.,12.0,0.,12.0,0.,12.0
1979-07-29 21:39:59.780 ,5,1,0.,12.0,0.,12.0,0.,12.0,0.,12.0
1979-07-29 21:40:11.780 ,5,1,0.,12.0,0.,12.0,0.,12.0,0.,12.0
1979-07-29 21:40:23.780 ,5,0,0.,12.0,0.,12.0,0.,12.0,0.,12.0
1979-07-29 21:40:35.780 ,5,0,0.,12.0,0.,12.0,0.,12.0,0.,12.0
1979-07-29 21:40:47.780 ,6,1,0.,12.0,0.,12.0,0.,12.0,0.,12.0
1979-07-29 21:40:59.780 ,6,1,0.,12.0,0.,12.0,0.,12.0,0.,12.0
1979-07-29 21:41:11.780 ,6,0,0.,12.0,0.,12.0,0.,12.0,0.,12.0
1979-07-29 21:41:23.780 ,6,0,0.,12.0,0.,12.0,0.,12.0,0.,12.0
1979-07-29 21:41:35.780 ,7,1,0.,12.0,0.,12.0,0.,12.0,0.,12.0
1979-07-29 21:41:47.780 ,7,1,0.,12.0,0.,12.0,0.,12.0,0.,12.0
1979-07-29 21:41:59.780 ,7,0,0.,12.0,0.,12.0,0.,12.0,0.,12.0
1979-07-29 21:42:11.780 ,7,0,0.,12.0,0.,12.0,0.,12.0,0.,12.0
1979-07-29 21:42:23.780 ,7,1,0.,12.0,0.,12.0,0.,12.0,0.,12.0
1979-07-29 21:42:35.780 ,7,1,0.,12.0,0.,12.0,0.,12.0,0.,12.0
1979-07-29 21:42:47.780 ,7,0,0.,12.0,0.,12.0,0.,12.0,0.,12.0
1979-07-29 21:42:59.780 ,7,0,0.,12.0,0.,12.0,0.,12.0,0.,12.0
1979-07-29 21:43:11.780 ,6,1,0.,12.0,0.,12.0,0.,12.0,0.,12.0
1979-07-29 21:43:23.780 ,6,1,0.,12.0,0.,12.0,0.,12.0,0.,12.0
1979-07-29 21:43:35.780 ,6,0,0.,12.0,0.,12.0,0.,12.0,0.,12.0
1979-07-29 21:43:47.780 ,6,0,0.,12.0,0.,12.0,0.,12.0,0.,12.0
1979-07-29 21:43:59.780 ,5,1,0.,12.0,0.,12.0,0.,12.0,0.,12.0
1979-07-29 21:44:11.780 ,5,1,0.,12.0,0.,12.0,0.,12.0,0.,12.0
1979-07-29 21:44:23.780 ,5,0,0.,12.0,0.,12.0,0.,12.0,0.,12.0
1979-07-29 21:44:35.780 ,5,0,0.,12.0,0.,12.0,0.,12.0,0.,12.0
1979-07-29 21:44:47.780 ,4,1,0.,12.0,0.,12.0,0.,12.0,0.,12.0
1979-07-29 21:44:59.780 ,4,1,0.,12.0,0.,12.0,0.,12.0,0.,12.0
1979-07-29 21:45:11.780 ,4,0,0.,12.0,0.,12.0,0.,12.0,0.,12.0
1979-07-29 21:45:23.780 ,4,0,0.,12.0,0.,12.0,0.,12.0,0.,12.0
1979-07-29 21:45:35.780 ,3,1,0.,12.0,0.,12.0,0.,12.0,0.,12.0
1979-07-29 21:45:47.780 ,3,1,0.,12.0,0.,12.0,0.,12.0,0.,12.0
1979-07-29 21:45:59.780 ,3,0,0.,12.0,0.,12.0,0.,12.0,0.,12.0
1979-07-29 21:46:11.780 ,3,0,0.,12.0,0.,12.0,0.,12.0,0.,12.0
1979-07-29 21:46:23.780 ,2,1,0.,12.0,0.,12.0,0.,12.0,0.,12.0
1979-07-29 21:46:35.780 ,2,1,0.,12.0,0.,12.0,0.,12.0,0.,12.0
1979-07-29 21:46:47.780 ,2,0,0.,12.0,0.,12.0,0.,12.0,0.,12.0
1979-07-29 21:46:59.780 ,2,0,0.,12.0,0.,12.0,0.,12.0,0.,12.0
1979-07-29 21:47:11.780 ,1,1,0.,12.0,0.,12.0,0.,12.0,0.,12.0
1979-07-29 21:47:23.780 ,1,1,0.,12.0,0.,12.0,0.,12.0,0.,12.0
1979-07-29 21:47:35.780 ,1,0,0.,12.0,0.,12.0,0.,12.0,0.,12.0
1979-07-29 21:47:47.780 ,1,0,0.,12.0,0.,12.0,0.,12.0,0.,12.0
1979-07-29 21:47:59.780 ,0,1,0.,12.0,0.,12.0,0.,12.0,0.,12.0
1979-07-29 21:48:11.780 ,0,1,0.,12.0,0.,12.0,0.,12.0,0.,12.0
1979-07-29 21:48:23.780 ,0,0,0.,12.0,0.,12.0,0.,12.0,0.,12.0
1979-07-29 21:48:35.780 ,0,0,0.,12.0,0.,12.0,0.,12.0,0.,12.0
1979-07-29 21:48:47.780 ,0,1,0.,12.0,0.,12.0,0.,12.0,0.,12.0
1979-07-29 21:48:59.780 ,0,1,0.,12.0,0.,12.0,0.,12.0,0.,12.0
1979-07-29 21:49:11.780 ,0,0,0.,12.0,0.,12.0,0.,12.0,0.,12.0
1979-07-29 21:49:23.780 ,0,0,0.,12.0,0.,12.0,0.,12.0,0.,12.0
1979-07-29 21:49:35.780 ,1,1,0.,12.0,0.,12.0,0.,12.0,0.,12.0
1979-07-29 21:49:47.780 ,1,1,0.,12.0,0.,12.0,0.,12.0,0.,12.0
1979-07-29 21:49:59.780 ,1,0,0.,12.0,0.,12.0,0.,12.0,0.,12.0
1979-07-29 21:50:11.780 ,1,0,0.,12.0,0.,12.0,0.,12.0,0.,12.0
1979-07-29 21:50:24.980 ,2,1,0.,12.0,0.,12.0,0.,12.0,0.,12.0
1979-07-29 21:50:36.980 ,2,1,0.,12.0,0.,12.0,0.,12.0,0.,12.0
1979-07-29 21:50:47.780 ,2,0,0.,12.0,0.,12.0,0.,12.0,0.,12.0
1979-07-29 21:50:59.780 ,2,0,0.,12.0,0.,12.0,0.,12.0,0.,12.0
1979-07-29 21:51:11.780 ,3,1,0.,12.0,0.,12.0,0.,12.0,0.,12.0
1979-07-29 21:51:23.780 ,3,1,0.,12.0,0.,12.0,0.,12.0,0.,12.0
1979-07-29 21:51:35.780 ,3,0,0.,12.0,0.,12.0,0.,12.0,0.,12.0
1979-07-29 21:51:47.780 ,3,0,0.,12.0,0.,12.0,0.,12.0,0.,12.0
1979-07-29 21:51:59.780 ,4,1,0.,12.0,0.,12.0,0.,12.0,0.,12.0
1979-07-29 21:52:11.780 ,4,1,0.,12.0,0.,12.0,0.,12.0,0.,12.0
1979-07-29 21:52:23.780 ,4,0,0.,12.0,0.,12.0,0.,12.0,0.,12.0
1979-07-29 21:52:35.780 ,4,0,0.,12.0,0.,12.0,0.,12.0,0.,12.0
1979-07-29 21:52:47.780 ,5,1,0.,12.0,0.,12.0,0.,12.0,0.,12.0
1979-07-29 21:52:59.780 ,5,1,0.,12.0,0.,12.0,0.,12.0,0.,12.0
1979-07-29 21:53:11.780 ,5,0,0.,12.0,0.,12.0,0.,12.0,0.,12.0
1979-07-29 21:53:23.780 ,5,0,0.,12.0,0.,12.0,0.,12.0,0.,12.0
1979-07-29 21:53:35.780 ,6,1,0.,12.0,0.,12.0,0.,12.0,0.,12.0
1979-07-29 21:53:47.780 ,6,1,0.,12.0,0.,12.0,0.,12.0,0.,12.0
1979-07-29 21:53:59.780 ,6,0,0.,12.0,0.,12.0,0.,12.0,0.,12.0
1979-07-29 21:54:11.780 ,6,0,0.,12.0,0.,12.0,0.,12.0,0.,12.0
1979-07-29 21:54:23.780 ,7,0,0.,12.0,0.,12.0,0.,12.0,0.,12.0
1979-07-29 21:54:35.780 ,7,0,0.,12.0,0.,12.0,0.,12.0,0.,12.0
1979-07-29 21:54:47.780 ,7,0,0.,12.0,0.,12.0,0.,12.0,0.,12.0
1979-07-29 21:54:59.780 ,7,0,0.,12.0,0.,12.0,0.,12.0,0.,12.0
1979-07-29 21:55:11.780 ,4,1,0.,12.0,0.,12.0,0.,12.0,0.,12.0
1979-07-29 21:55:23.780 ,4,1,0.,12.0,0.,12.0,0.,12.0,0.,12.0
1979-07-29 21:55:35.780 ,0,1,0.,12.0,0.,12.0,0.,12.0,0.,12.0
1979-07-29 21:55:47.780 ,0,1,0.,12.0,0.,12.0,0.,12.0,0.,12.0
1979-07-29 21:55:59.780 ,3,1,0.,12.0,0.,12.0,0.,12.0,0.,12.0
1979-07-29 21:56:11.780 ,3,1,0.,12.0,0.,12.0,0.,12.0,0.,12.0
1979-07-29 21:56:23.780 ,7,1,0.,12.0,0.,12.0,0.,12.0,0.,12.0
1979-07-29 21:56:35.780 ,7,1,0.,12.0,0.,12.0,0.,12.0,0.,12.0
1979-07-29 21:56:47.780 ,4,1,0.,12.0,0.,12.0,0.,12.0,0.,12.0
1979-07-29 21:56:59.780 ,4,1,0.,12.0,0.,12.0,0.,12.0,1.,12.0
1979-07-29 21:57:11.780 ,0,1,0.,12.0,0.,12.0,0.,12.0,0.,12.0
1979-07-29 21:57:23.780 ,0,1,0.,12.0,0.,12.0,0.,12.0,0.,12.0
1979-07-29 21:57:35.780 ,3,1,0.,12.0,0.,12.0,0.,12.0,0.,12.0
1979-07-29 21:57:47.780 ,3,1,0.,12.0,0.,12.0,0.,12.0,0.,12.0
1979-07-29 21:57:59.780 ,7,1,0.,12.0,0.,12.0,0.,12.0,0.,12.0
1979-07-29 21:58:11.780 ,7,1,0.,12.0,0.,12.0,0.,12.0,0.,12.0
1979-07-29 21:58:23.780 ,4,1,0.,12.0,0.,12.0,0.,12.0,0.,12.0
1979-07-29 21:58:35.780 ,4,1,0.,12.0,0.,12.0,0.,12.0,0.,12.0
1979-07-29 21:58:47.780 ,0,1,0.,12.0,0.,12.0,0.,12.0,0.,12.0
1979-07-29 21:58:59.780 ,0,1,0.,12.0,0.,12.0,0.,12.0,0.,12.0
1979-07-29 21:59:11.780 ,3,1,0.,12.0,0.,12.0,0.,12.0,0.,12.0
1979-07-29 21:59:23.780 ,3,1,0.,12.0,0.,12.0,0.,12.0,0.,12.0
1979-07-29 21:59:35.780 ,7,1,0.,12.0,0.,12.0,0.,12.0,0.,12.0
1979-07-29 21:59:47.780 ,7,1,0.,12.0,0.,12.0,0.,12.0,0.,12.0
1979-07-29 21:59:59.780 ,4,1,0.,12.0,0.,12.0,0.,12.0,0.,12.0
1979-07-29 22:00:11.780 ,4,1,0.,12.0,0.,12.0,0.,12.0,0.,12.0
1979-07-29 22:00:23.780 ,0,1,0.,12.0,0.,12.0,0.,12.0,0.,12.0
1979-07-29 22:00:35.780 ,0,1,0.,12.0,0.,12.0,0.,12.0,0.,12.0
1979-07-29 22:00:47.780 ,3,1,0.,12.0,0.,12.0,0.,12.0,0.,12.0
1979-07-29 22:00:59.780 ,3,1,0.,12.0,0.,12.0,0.,12.0,0.,12.0
1979-07-29 22:01:11.780 ,7,1,0.,12.0,0.,12.0,0.,12.0,0.,12.0
1979-07-29 22:01:23.780 ,7,1,0.,12.0,0.,12.0,0.,12.0,0.,12.0
1979-07-29 22:01:35.780 ,4,1,0.,12.0,0.,12.0,0.,12.0,0.,12.0
1979-07-29 22:01:47.780 ,4,1,0.,12.0,0.,12.0,0.,12.0,0.,12.0
1979-07-29 22:01:59.780 ,0,1,0.,12.0,0.,12.0,0.,12.0,0.,12.0
1979-07-29 22:02:11.780 ,0,1,0.,12.0,0.,12.0,0.,12.0,0.,12.0
1979-07-29 22:02:23.780 ,3,1,0.,12.0,0.,12.0,0.,12.0,0.,12.0
1979-07-29 22:02:35.780 ,3,1,0.,12.0,0.,12.0,0.,12.0,0.,12.0
1979-07-29 22:02:47.780 ,7,1,0.,12.0,0.,12.0,0.,12.0,0.,12.0
1979-07-29 22:02:59.780 ,7,1,0.,12.0,0.,12.0,0.,12.0,0.,12.0
1979-07-29 22:03:11.780 ,4,1,0.,12.0,0.,12.0,0.,12.0,0.,12.0
1979-07-29 22:03:23.780 ,4,1,0.,12.0,0.,12.0,0.,12.0,0.,12.0
1979-07-29 22:03:35.780 ,0,1,0.,12.0,0.,12.0,0.,12.0,0.,12.0
1979-07-29 22:03:47.780 ,0,1,0.,12.0,0.,12.0,0.,12.0,0.,12.0
1979-07-29 22:03:59.780 ,3,1,0.,12.0,0.,12.0,0.,12.0,0.,12.0
1979-07-29 22:04:11.780 ,3,1,0.,12.0,0.,12.0,0.,12.0,0.,12.0
1979-07-29 22:04:23.780 ,7,1,0.,12.0,0.,12.0,0.,12.0,0.,12.0
1979-07-29 22:04:35.780 ,7,1,0.,12.0,0.,12.0,0.,12.0,0.,12.0
1979-07-29 22:04:47.780 ,4,1,0.,12.0,0.,12.0,0.,12.0,0.,12.0
1979-07-29 22:04:59.780 ,4,1,0.,12.0,0.,12.0,0.,12.0,0.,12.0
1979-07-29 22:05:11.780 ,0,1,0.,12.0,0.,12.0,0.,12.0,0.,12.0
1979-07-29 22:05:23.780 ,0,1,0.,12.0,0.,12.0,0.,12.0,0.,12.0
1979-07-29 22:05:35.780 ,0,0,0.,12.0,0.,12.0,0.,12.0,0.,12.0
1979-07-29 22:05:47.780 ,0,0,0.,12.0,0.,12.0,0.,12.0,0.,12.0
1979-07-29 22:05:59.780 ,0,0,0.,12.0,0.,12.0,0.,12.0,0.,12.0
1979-07-29 22:06:11.780 ,0,0,0.,12.0,0.,12.0,0.,12.0,0.,12.0
1979-07-29 22:06:23.780 ,5,1,0.,12.0,0.,12.0,0.,12.0,0.,12.0
1979-07-29 22:06:35.780 ,5,1,0.,12.0,0.,12.0,0.,12.0,0.,12.0
1979-07-29 22:06:47.780 ,5,0,0.,12.0,0.,12.0,0.,12.0,0.,12.0
1979-07-29 22:06:59.780 ,5,0,0.,12.0,0.,12.0,0.,12.0,0.,12.0
1979-07-29 22:07:11.780 ,4,1,0.,12.0,0.,12.0,0.,12.0,0.,12.0
1979-07-29 22:07:23.780 ,4,1,0.,12.0,0.,12.0,0.,12.0,0.,12.0
1979-07-29 22:07:35.780 ,4,0,0.,12.0,0.,12.0,0.,12.0,0.,12.0
1979-07-29 22:07:47.780 ,4,0,0.,12.0,0.,12.0,0.,12.0,0.,12.0
1979-07-29 22:07:59.780 ,3,1,0.,12.0,0.,12.0,0.,12.0,0.,12.0
1979-07-29 22:08:11.780 ,3,1,0.,12.0,0.,12.0,0.,12.0,0.,12.0
1979-07-29 22:08:23.780 ,3,0,0.,12.0,0.,12.0,0.,12.0,0.,12.0
1979-07-29 22:08:35.780 ,3,0,0.,12.0,0.,12.0,0.,12.0,0.,12.0
1979-07-29 22:08:47.780 ,2,1,0.,12.0,0.,12.0,0.,12.0,0.,12.0
1979-07-29 22:08:59.780 ,2,1,0.,12.0,0.,12.0,0.,12.0,0.,12.0
1979-07-29 22:09:11.780 ,2,0,0.,12.0,0.,12.0,0.,12.0,0.,12.0
1979-07-29 22:09:23.780 ,2,0,0.,12.0,0.,12.0,0.,12.0,0.,12.0
1979-07-29 22:09:35.780 ,1,1,0.,12.0,0.,12.0,0.,12.0,0.,12.0
1979-07-29 22:09:47.780 ,1,1,0.,12.0,0.,12.0,0.,12.0,0.,12.0
1979-07-29 22:09:59.780 ,1,0,0.,12.0,0.,12.0,0.,12.0,0.,12.0
1979-07-29 22:10:11.780 ,1,0,0.,12.0,0.,12.0,0.,12.0,0.,12.0
1979-07-29 22:10:23.780 ,0,1,0.,12.0,0.,12.0,0.,12.0,0.,12.0
1979-07-29 22:10:35.780 ,0,1,0.,12.0,0.,12.0,0.,12.0,0.,12.0
1979-07-29 22:10:47.780 ,0,0,0.,12.0,0.,12.0,0.,12.0,0.,12.0
1979-07-29 22:10:59.780 ,0,0,0.,12.0,0.,12.0,0.,12.0,0.,12.0
1979-07-29 22:11:11.780 ,0,1,0.,12.0,0.,12.0,0.,12.0,0.,12.0
1979-07-29 22:11:23.780 ,0,1,0.,12.0,0.,12.0,0.,12.0,0.,12.0
1979-07-29 22:11:35.780 ,0,0,0.,12.0,0.,12.0,0.,12.0,0.,12.0
1979-07-29 22:11:47.780 ,0,0,0.,12.0,0.,12.0,0.,12.0,0.,12.0
1979-07-29 22:11:59.780 ,1,1,0.,12.0,0.,12.0,0.,12.0,0.,12.0
1979-07-29 22:12:11.780 ,1,1,0.,12.0,0.,12.0,0.,12.0,0.,12.0
1979-07-29 22:12:23.780 ,1,0,0.,12.0,0.,12.0,0.,12.0,0.,12.0
1979-07-29 22:12:35.780 ,1,0,0.,12.0,0.,12.0,0.,12.0,0.,12.0
1979-07-29 22:12:47.780 ,2,1,0.,12.0,0.,12.0,0.,12.0,0.,12.0
1979-07-29 22:12:59.780 ,2,1,0.,12.0,0.,12.0,0.,12.0,0.,12.0
1979-07-29 22:13:11.780 ,2,0,0.,12.0,0.,12.0,0.,12.0,0.,12.0
1979-07-29 22:13:23.780 ,2,0,0.,12.0,0.,12.0,0.,12.0,0.,12.0
1979-07-29 22:13:35.780 ,3,1,0.,12.0,0.,12.0,0.,12.0,0.,12.0
1979-07-29 22:13:47.780 ,3,1,0.,12.0,0.,12.0,0.,12.0,0.,12.0
1979-07-29 22:13:59.780 ,3,0,0.,12.0,0.,12.0,0.,12.0,0.,12.0
1979-07-29 22:14:11.780 ,3,0,0.,12.0,0.,12.0,0.,12.0,0.,12.0
1979-07-29 22:14:23.780 ,4,1,0.,12.0,0.,12.0,0.,12.0,0.,12.0
1979-07-29 22:14:35.780 ,4,1,0.,12.0,0.,12.0,0.,12.0,0.,12.0
1979-07-29 22:14:47.780 ,4,0,0.,12.0,0.,12.0,0.,12.0,0.,12.0
1979-07-29 22:14:59.780 ,4,0,0.,12.0,0.,12.0,0.,12.0,0.,12.0
1979-07-29 22:15:11.780 ,5,1,0.,12.0,0.,12.0,0.,12.0,0.,12.0
1979-07-29 22:15:23.780 ,5,1,0.,12.0,0.,12.0,0.,12.0,0.,12.0
1979-07-29 22:15:35.780 ,5,0,0.,12.0,0.,12.0,0.,12.0,0.,12.0
1979-07-29 22:15:47.780 ,5,0,0.,12.0,0.,12.0,0.,12.0,0.,12.0
1979-07-29 22:15:59.780 ,6,1,0.,12.0,0.,12.0,0.,12.0,0.,12.0
1979-07-29 22:16:11.780 ,6,1,0.,12.0,0.,12.0,0.,12.0,0.,12.0
1979-07-29 22:16:23.780 ,6,0,0.,12.0,0.,12.0,0.,12.0,0.,12.0
1979-07-29 22:16:35.780 ,6,0,0.,12.0,0.,12.0,0.,12.0,0.,12.0
1979-07-29 22:16:47.780 ,7,1,0.,12.0,0.,12.0,0.,12.0,0.,12.0
1979-07-29 22:16:59.780 ,7,1,0.,12.0,0.,12.0,0.,12.0,0.,12.0
1979-07-29 22:17:11.780 ,7,0,0.,12.0,0.,12.0,0.,12.0,0.,12.0
1979-07-29 22:17:23.780 ,7,0,0.,12.0,0.,12.0,0.,12.0,0.,12.0
1979-07-29 22:17:35.780 ,7,1,0.,12.0,0.,12.0,0.,12.0,0.,12.0
1979-07-29 22:17:47.780 ,7,1,0.,12.0,0.,12.0,0.,12.0,0.,12.0
1979-07-29 22:17:59.780 ,7,0,0.,12.0,0.,12.0,0.,12.0,0.,12.0